Date,TemperatureHighF,TemperatureAvgF,TemperatureLowF,DewpointHighF,DewpointAvgF,DewpointLowF,HumidityHigh,HumidityAvg,HumidityLow,PressureMaxIn,PressureMinIn,WindSpeedMaxMPH,WindSpeedAvgMPH,GustSpeedMaxMPH,PrecipitationSumIn
2013-1-2,30,26,19,21,18,14,85,70,55,30.19,30.02,10,2,21,0.00
2013-1-3,39,26,14,21,17,11,89,70,48,30.21,30.12,13,2,17,0.00
2013-1-4,32,29,28,22,21,20,74,70,66,30.19,30.12,21,7,32,0.00
2013-1-5,44,36,29,28,23,19,86,63,39,30.33,30.14,7,2,17,0.00
2013-1-6,40,38,33,32,28,24,82,69,58,30.13,29.99,11,3,20,0.00
2013-1-7,40,30,18,30,24,16,92,79,57,30.42,30.14,13,2,19,0.00
2013-1-8,51,29,16,32,23,14,93,80,38,30.41,30.31,9,1,16,0.00
2013-1-9,53,38,23,45,32,-100,94,82,66,30.42,30.23,16,-8,23,0.01
2013-1-10,53,40,32,36,32,29,92,75,39,30.55,30.39,4,1,15,0.00
2013-1-11,46,37,32,42,35,30,98,92,72,30.38,30.05,4,1,12,0.13
2013-1-12,68,33,37,56,-2,-100,99,60,60,30.11,30.02,10,-324,15,0.00
2013-1-13,-200,0,200,-100,-100,-100,0,0,100,30.02,29.84,0,-999,0,0.00
2013-1-14,-200,0,200,-100,-100,-100,0,0,100,30.21,29.87,0,-999,0,0.00
2013-1-15,-200,0,200,-100,-100,-100,0,0,100,30.21,29.98,0,-999,0,0.00
2013-1-16,44,30,33,41,5,-100,98,68,62,29.99,29.80,8,-217,17,0.13
2013-1-17,40,1,40,28,-97,-100,62,1,62,30.07,29.97,5,-977,17,0.00
2013-1-18,-200,0,200,-100,-100,-100,0,0,100,30.34,30.04,0,-999,0,0.00
2013-1-19,56,1,56,14,-97,-100,19,0,19,30.19,29.79,6,-974,17,0.00
2013-1-20,49,0,49,21,-99,-100,34,0,34,29.98,29.73,8,-988,8,0.00
2013-1-21,-200,0,200,-100,-100,-100,0,0,100,29.98,29.69,0,-999,0,0.00
2013-1-22,-200,0,200,-100,-100,-100,0,0,100,30.06,29.84,0,-999,0,0.00
2013-1-23,-200,0,200,-100,-100,-100,0,0,100,30.11,29.88,0,-999,0,0.00
2013-1-24,-200,0,200,-100,-100,-100,0,0,100,30.34,29.85,0,-999,0,0.00
2013-1-25,-200,0,200,-100,-100,-100,0,0,100,30.33,29.83,0,-999,0,0.00
2013-1-26,-200,0,200,-100,-100,-100,0,0,100,30.28,29.85,0,-999,0,0.00
2013-1-27,-200,0,200,-100,-100,-100,0,0,100,30.39,30.26,0,-999,0,0.00
2013-1-28,-200,0,200,-100,-100,-100,0,0,100,30.25,29.95,0,-999,0,0.00
2013-1-29,-200,0,200,-100,-100,-100,0,0,100,30.02,29.84,0,-999,0,0.00
2013-1-30,-200,0,200,-100,-100,-100,0,0,100,29.83,29.16,0,-999,0,0.00
2013-1-31,-200,0,200,-100,-100,-100,0,0,100,29.72,29.13,0,-999,0,0.00